Location: Góry Miechowskie
(50.3599°N, 20.1803°E)
Time: 16:54:05
(UTC+00:00)

A-11 Canister half - Pass Details

Date: 15 September 2024
Orbit: 1515 x 1685 km, 47.2° (Epoch: 14 October)

Event Time Altitude Azimuth Distance (km) Brightness Sun altitude
Rises 22:36:33 0° 285° (WNW) 4,667 11.7 -37.1°
Reaches altitude 10° 22:39:42 10° 280° (W) 3,679 11.0 -37.1°
Enters shadow 22:43:00 24° 269° (W) 2,737 10.2 -37.1°
